Wind_Speed
31 31 31 28 30 28 33 31 36 35 35 34 32 23 23 24 24 26 27 27 34 36 38 31 27 28 25 21 27 32 26 23 23 19 17 14 14 11 9 12 12 11 12
26 32 22 32 28 25 27 21 27 33 30 35 24 26 22 20 19 22 22 24 25 28 29 29 25 24 20 24 28 27 25 24 23 15 13 15 12 12 10 11 11 10 12
24 26 30 31 28 27 26 23 23 26 18 19 9 11 7 11 13 18 19 23 28 30 28 25 24 25 23 27 22 22 24 27 22 15 15 15 15 12 11 12 13 11 11
24 24 25 28 30 31 29 27 23 22 23 15 11 12 7 6 8 7 10 20 24 22 22 26 25 26 28 24 23 25 25 26 23 19 19 18 13 12 14 14 13 9 11
28 25 25 26 26 25 26 27 24 27 27 18 13 10 13 10 6 6 7 12 18 24 24 25 28 26 26 26 27 25 27 26 25 22 20 19 15 14 14 13 13 12 12
27 28 27 27 24 24 21 22 26 26 29 29 23 19 17 13 12 10 11 10 12 22 23 25 35 35 30 26 27 27 26 26 24 22 21 18 15 15 16 15 16 14 13
27 28 27 23 24 24 24 22 23 25 26 28 31 30 22 21 16 16 12 13 17 19 19 23 21 26 31 23 28 29 26 25 24 22 19 18 17 17 17 17 17 16 15
25 23 23 27 30 27 27 24 24 27 27 25 26 31 30 24 20 17 22 14 16 18 19 22 22 25 31 31 29 31 29 28 26 24 20 20 20 19 19 19 19 21 17
25 26 25 27 28 27 27 25 25 25 25 24 23 23 29 31 24 22 23 20 17 18 18 17 20 25 27 36 32 31 28 26 25 23 21 22 20 20 22 23 24 23 19
26 25 24 28 27 26 24 25 25 25 22 21 19 21 25 30 32 28 29 25 26 22 21 19 17 18 20 25 33 34 29 26 27 24 24 25 25 26 26 26 26 26 22
27 25 25 27 28 26 24 24 22 18 22 21 23 27 24 32 32 28 23 26 22 17 16 15 16 17 19 23 26 30 28 27 28 26 28 30 28 27 27 28 28 28 25
22 22 23 26 21 18 21 23 17 14 13 20 16 15 21 23 23 20 19 21 19 17 15 13 16 19 21 25 28 27 26 29 31 31 32 30 29 28 28 30 29 28 26
16 16 17 12 11 14 16 16 12 15 11 11 11 9 7 13 15 19 21 23 24 21 19 18 21 23 23 23 26 29 30 31 32 31 30 30 28 29 30 30 28 28 28
14 12 12 11 11 12 14 16 16 15 12 12 10 9 10 11 13 16 19 22 20 18 19 21 23 23 24 24 25 27 29 33 37 34 29 29 29 31 30 29 29 28 29
10 11 12 10 10 12 13 15 15 14 13 13 13 15 13 12 10 15 19 20 20 19 20 23 23 22 21 20 22 24 27 28 28 26 30 31 31 30 26 27 28 30 30
12 11 12 12 9 9 11 10 12 15 14 13 15 16 18 19 19 21 22 22 20 18 19 18 18 19 19 19 19 21 23 24 27 30 28 27 26 26 27 26 28 30 31
16 13 12 13 13 13 12 10 13 13 7 8 12 15 17 19 18 19 20 19 18 19 18 17 16 16 17 18 20 21 23 26 28 26 25 26 28 29 28 30 30 31 31
19 18 16 16 15 15 15 15 15 11 11 11 11 9 12 16 17 17 17 17 18 18 16 16 15 16 16 17 18 18 20 26 26 27 28 27 28 29 29 29 29 29 29
23 21 21 20 18 16 17 16 18 18 16 15 14 14 13 14 15 16 16 16 17 17 16 16 15 15 16 18 19 19 21 23 23 23 24 26 27 28 27 28 28 29 30
26 24 23 22 21 20 18 18 18 19 20 20 20 17 16 16 15 15 14 15 15 16 17 17 16 16 17 18 18 18 21 21 22 23 24 26 27 28 27 28 28 29 30
22 22 23 24 23 22 20 18 18 19 19 20 22 22 21 21 19 18 17 16 17 17 17 18 19 19 20 20 21 21 21 21 22 23 24 25 25 25 25 26 27 28 29
25 26 26 24 22 18 17 17 17 18 19 19 20 21 22 24 25 25 23 20 20 19 19 19 20 21 23 24 25 24 22 22 24 24 24 24 24 25 27 27 28 28 29
26 25 22 19 16 16 15 15 15 15 16 17 19 21 22 22 23 23 24 22 22 20 20 19 18 18 17 17 16 16 17 18 18 19 20 22 23 24 25 26 26 27 28
18 17 16 15 14 13 13 13 12 11 11 11 14 16 17 18 18 19 20 21 20 18 17 16 15 16 17 17 18 18 19 20 21 22 23 24 25 26 26 27 28 29 30
14 13 12 12 12 12 11 11 9 8 7 7 7 7 7 10 12 14 15 16 16 16 16 17 18 18 18 19 20 20 21 22 23 24 25 26 28 29 30 31 32 32 33
13 13 13 13 13 12 10 9 8 8 8 8 7 7 7 7 8 10 11 13 14 14 15 16 17 18 19 21 22 23 24 26 27 28 29 30 32 33 33 34 34 34 34
Wind_Direction
292 290 292 284 291 296 310 313 299 295 283 279 278 285 281 285 273 263 252 243 231 221 217 204 196 197 206 209 227 236 249 256 260 255 242 216 206 201 205 232 239 250 256
276 297 291 290 282 299 306 315 331 289 269 277 270 270 276 283 272 249 232 222 213 203 197 198 201 204 203 222 225 232 240 247 257 242 205 208 211 217 214 239 246 256 258
289 282 282 286 284 289 296 302 302 317 283 265 296 311 294 286 271 244 224 212 206 201 199 203 210 209 215 222 221 227 230 237 244 223 202 213 219 224 226 243 250 239 256
287 283 285 283 285 288 283 281 286 282 303 323 308 292 298 282 296 293 267 239 227 218 217 220 219 216 221 220 219 221 225 234 236 225 216 218 220 227 233 237 249 246 249
304 303 293 287 284 284 284 285 274 271 274 279 278 296 299 288 286 293 276 271 243 234 234 238 232 226 226 223 219 217 222 229 230 225 223 222 221 230 239 240 244 242 242
297 299 295 291 291 288 291 287 280 269 261 262 264 261 263 274 276 263 252 241 252 249 252 256 249 230 221 215 225 221 226 232 229 229 230 228 222 226 235 237 242 244 239
293 295 297 292 281 281 290 284 280 282 274 260 255 254 253 257 267 241 237 239 248 242 247 252 249 246 227 218 230 218 225 230 230 234 232 233 228 227 233 236 238 237 234
296 285 288 281 278 285 279 280 276 277 277 273 260 248 245 249 258 259 257 242 261 260 253 251 238 248 243 218 221 222 219 224 228 231 233 237 234 229 231 233 234 231 231
291 287 281 284 290 286 276 277 275 271 274 271 273 243 240 239 250 250 248 249 256 258 258 262 249 248 248 232 216 229 224 222 230 232 232 232 235 232 233 234 234 236 230
295 290 285 284 287 287 273 273 276 277 272 264 250 238 239 236 243 238 256 238 250 243 241 239 243 241 240 241 224 217 218 224 229 227 229 232 229 228 230 231 230 234 229
293 291 292 293 288 280 269 268 270 273 264 258 260 238 237 236 228 234 240 242 234 237 237 240 242 243 242 232 228 225 216 218 227 229 233 233 232 233 233 235 236 238 235
289 297 304 297 291 274 270 258 252 276 301 247 260 252 252 248 234 224 226 223 232 241 257 257 250 243 238 234 227 228 225 221 226 227 232 234 234 235 235 236 237 240 242
289 314 328 313 283 284 268 267 246 261 258 255 241 236 241 208 208 229 227 232 241 245 255 259 253 251 248 245 243 236 229 226 225 226 231 235 235 235 236 237 238 241 244
288 308 331 340 293 288 275 255 255 260 254 248 232 244 239 221 227 235 233 238 245 252 259 259 257 251 247 245 244 243 239 236 233 224 226 229 231 237 238 239 240 243 246
301 324 321 330 335 302 274 259 255 258 254 246 229 221 233 242 244 240 236 243 245 250 252 255 255 255 253 251 251 252 249 239 223 222 226 230 238 238 238 241 243 246 249
305 309 314 319 322 315 288 287 255 250 249 244 236 228 215 224 228 228 234 239 244 248 250 256 257 254 252 250 247 247 241 222 219 226 228 234 232 239 243 244 247 249 251
307 304 303 309 307 295 285 291 274 263 260 264 243 238 229 228 228 234 239 244 243 245 253 260 259 255 250 247 245 241 238 232 218 219 226 228 232 234 241 248 249 251 254
301 296 299 303 296 288 280 279 266 261 263 266 279 263 234 232 236 237 238 242 246 256 266 267 264 252 249 246 240 235 227 224 222 223 231 235 238 245 248 250 252 254 256
286 289 296 296 300 295 281 273 272 264 257 250 249 254 256 249 242 240 245 251 253 260 265 264 256 247 245 241 233 225 226 221 221 227 235 243 247 250 252 253 255 257 258
277 277 286 287 282 297 292 277 268 263 256 252 252 253 253 249 252 254 254 255 257 260 265 259 249 239 235 233 227 218 213 222 230 237 243 247 249 251 254 256 257 259 262
271 274 282 282 281 288 282 273 269 265 260 255 249 249 251 254 254 256 259 259 260 262 265 257 245 236 232 225 221 224 232 238 242 244 246 248 251 253 253 254 257 261 263
280 280 281 277 275 275 271 272 270 268 265 258 250 250 249 252 253 254 255 253 256 259 259 253 245 238 234 236 239 238 240 240 243 248 250 251 253 256 257 259 262 265 267
271 271 269 267 267 268 271 272 272 269 265 259 252 251 251 250 249 248 248 248 249 253 252 244 242 244 244 246 242 239 240 241 245 251 255 258 261 263 265 266 266 267 268
264 264 263 264 264 266 268 268 267 264 262 260 256 254 252 248 243 240 239 239 240 241 237 229 226 228 232 234 237 243 248 253 257 260 262 264 265 265 266 267 269 270 271
267 266 264 264 263 261 259 258 256 256 255 251 246 241 236 233 234 233 231 230 232 233 234 237 240 242 244 248 251 254 258 261 263 264 264 264 265 266 268 270 271 272 273
269 265 262 260 259 258 257 254 252 249 247 244 241 236 231 228 228 231 234 238 242 246 248 250 252 254 255 257 260 261 262 263 263 264 266 267 269 270 272 272 273 273 272
Height
3016 3014 3011 3007 3005 3004 3003 3001 2997 2995 2994 2992 2990 2989 2987 2984 2982 2982 2983 2987 2992 2998 3005 3012 3015 3019 3026 3031 3040 3040 3040 3042 3045 3047 3049 3050 3051 3053 3058 3060 3064 3067 3069
3010 3005 2997 3000 3001 3001 2998 2995 2991 2987 2985 2987 2982 2982 2982 2981 2980 2979 2981 2985 2990 2995 3001 3005 3010 3016 3021 3029 3034 3035 3037 3039 3039 3042 3044 3046 3047 3051 3053 3057 3060 3063 3065
3004 3002 2998 2995 2995 2994 2992 2990 2988 2984 2980 2980 2978 2978 2980 2980 2980 2980 2982 2985 2988 2991 2995 3000 3006 3011 3017 3023 3027 3030 3034 3033 3035 3037 3040 3041 3044 3045 3049 3052 3056 3061 3060
2996 2994 2992 2990 2988 2986 2985 2983 2982 2979 2978 2976 2975 2976 2976 2978 2979 2981 2982 2985 2987 2989 2993 2998 3003 3007 3012 3017 3021 3026 3028 3028 3030 3034 3037 3037 3039 3041 3046 3051 3053 3055 3057
2987 2985 2983 2981 2980 2979 2977 2974 2974 2975 2974 2973 2973 2973 2975 2976 2978 2978 2979 2981 2984 2987 2992 2996 2999 3002 3006 3012 3016 3020 3022 3024 3026 3029 3032 3032 3034 3039 3044 3047 3049 3052 3054
2980 2977 2975 2973 2971 2970 2970 2969 2966 2967 2968 2968 2968 2970 2971 2973 2975 2974 2978 2979 2981 2984 2987 2990 2993 2995 2999 3005 3011 3014 3018 3018 3022 3024 3028 3029 3031 3035 3039 3043 3048 3050 3052
2974 2971 2968 2966 2967 2964 2962 2963 2962 2959 2958 2960 2962 2964 2967 2969 2970 2970 2973 2975 2978 2980 2982 2983 2986 2990 2993 2998 3005 3008 3010 3013 3016 3019 3022 3025 3027 3031 3036 3039 3043 3047 3049
2967 2964 2962 2960 2957 2956 2954 2956 2955 2953 2952 2951 2954 2956 2960 2964 2966 2968 2969 2971 2973 2975 2977 2980 2984 2984 2988 2992 2997 3001 3003 3007 3010 3012 3017 3020 3026 3027 3031 3036 3040 3043 3045
2960 2957 2956 2952 2950 2949 2947 2947 2947 2946 2946 2945 2945 2947 2952 2956 2960 2963 2964 2967 2969 2970 2972 2975 2978 2980 2982 2986 2990 2996 2999 3002 3005 3008 3012 3016 3021 3024 3027 3032 3034 3038 3041
2953 2950 2948 2945 2943 2941 2941 2940 2939 2937 2938 2938 2940 2941 2945 2950 2952 2954 2958 2962 2965 2969 2971 2973 2975 2976 2977 2980 2984 2988 2993 2997 3000 3003 3007 3010 3014 3019 3022 3027 3030 3032 3036
2946 2942 2939 2937 2935 2934 2934 2934 2934 2933 2931 2932 2930 2935 2938 2942 2945 2949 2952 2956 2960 2964 2966 2968 2970 2971 2973 2976 2978 2982 2986 2991 2995 2998 3002 3004 3009 3013 3017 3022 3025 3026 3030
2938 2936 2932 2929 2927 2928 2928 2928 2929 2929 2927 2928 2929 2930 2932 2934 2938 2944 2947 2951 2954 2957 2960 2962 2964 2966 2968 2971 2974 2977 2981 2984 2988 2992 2995 2999 3004 3008 3012 3016 3018 3021 3025
2932 2930 2926 2924 2924 2923 2923 2923 2923 2925 2926 2926 2927 2927 2928 2929 2934 2939 2942 2946 2949 2953 2955 2957 2957 2959 2961 2965 2969 2971 2974 2977 2981 2985 2989 2994 2999 3002 3006 3009 3012 3015 3018
2927 2925 2923 2922 2921 2920 2920 2920 2921 2921 2922 2923 2924 2926 2928 2931 2934 2937 2938 2942 2945 2947 2949 2950 2952 2953 2954 2958 2960 2963 2966 2969 2972 2977 2983 2988 2992 2996 3000 3003 3005 3008 3011
2922 2920 2921 2919 2917 2917 2917 2917 2918 2919 2919 2920 2921 2923 2926 2928 2931 2933 2936 2938 2941 2942 2943 2945 2946 2947 2949 2951 2953 2956 2959 2962 2966 2972 2976 2980 2985 2989 2993 2996 2998 3000 3003
2917 2918 2918 2917 2915 2916 2915 2914 2914 2915 2916 2917 2918 2920 2922 2925 2927 2929 2931 2934 2936 2937 2938 2939 2941 2942 2943 2945 2947 2950 2953 2957 2962 2966 2970 2974 2978 2982 2986 2989 2990 2993 2995
2915 2916 2915 2914 2913 2913 2912 2912 2912 2912 2912 2913 2914 2916 2918 2921 2923 2925 2927 2928 2930 2931 2932 2934 2935 2936 2938 2939 2941 2944 2947 2951 2955 2959 2964 2968 2971 2975 2978 2980 2983 2985 2987
2912 2912 2911 2911 2910 2909 2908 2908 2909 2909 2910 2911 2912 2913 2914 2916 2918 2920 2921 2922 2924 2925 2927 2928 2930 2931 2932 2934 2935 2938 2941 2945 2949 2953 2958 2961 2964 2967 2969 2972 2974 2976 2978
2909 2908 2907 2906 2905 2904 2904 2903 2903 2904 2905 2907 2908 2910 2911 2912 2913 2915 2916 2918 2919 2920 2922 2922 2924 2925 2927 2928 2930 2932 2936 2940 2944 2948 2951 2954 2957 2959 2961 2964 2965 2967 2968
2903 2902 2901 2901 2900 2899 2898 2898 2898 2898 2899 2900 2902 2905 2906 2907 2909 2910 2912 2913 2914 2915 2916 2916 2918 2919 2921 2923 2925 2928 2932 2935 2939 2942 2945 2947 2949 2951 2953 2954 2956 2957 2959
2895 2895 2895 2894 2893 2893 2892 2892 2893 2893 2893 2894 2896 2898 2900 2902 2903 2905 2906 2908 2909 2910 2910 2911 2912 2914 2916 2918 2920 2924 2927 2930 2933 2935 2937 2939 2940 2942 2944 2945 2947 2948 2949
2889 2889 2888 2887 2887 2886 2886 2886 2886 2887 2887 2888 2890 2892 2893 2894 2896 2898 2900 2902 2903 2904 2904 2905 2906 2909 2911 2913 2915 2918 2920 2923 2925 2928 2930 2931 2933 2934 2935 2936 2937 2938 2939
2883 2882 2882 2882 2881 2881 2881 2881 2881 2881 2882 2882 2884 2885 2886 2888 2889 2891 2894 2895 2896 2898 2898 2900 2901 2903 2906 2908 2910 2912 2914 2917 2919 2921 2922 2923 2924 2925 2926 2927 2928 2929 2930
2877 2877 2877 2877 2877 2877 2877 2877 2877 2877 2877 2878 2878 2879 2880 2881 2883 2885 2887 2889 2890 2892 2893 2895 2897 2899 2901 2903 2904 2906 2908 2910 2911 2913 2914 2915 2915 2916 2917 2918 2919 2919 2920
2872 2872 2872 2873 2873 2873 2874 2874 2874 2874 2875 2875 2875 2876 2876 2877 2879 2880 2882 2884 2886 2888 2890 2891 2893 2894 2896 2897 2899 2900 2902 2903 2904 2905 2906 2906 2907 2907 2908 2908 2908 2909 2909
2869 2869 2870 2870 2870 2870 2871 2871 2871 2872 2872 2873 2873 2874 2875 2876 2877 2878 2879 2881 2882 2884 2885 2886 2888 2889 2890 2891 2893 2894 2895 2895 2896 2896 2897 2897 2897 2897 2897 2897 2897 2897 2897